Back to catalog

NAHUEL I2

ANIK C2

AliveCommunicationsGEO
NORAD 14133·PAYLOAD·🇦🇷 Argentina

Launched Jun 18, 1983 from Cape Canaveral Space Force Station

Loading…

TLE

FreshSource: Space-Track

Epoch: Sep 12, 2026, 16:38 UTC

1 14133U 83059B   26255.69367924 -.00000082  00000-0  00000-0 0  9994
2 14133  12.8232 335.6356 0035867 125.8951 234.4590  0.99120681 47018

Track NAHUEL I2 in real time with AllMySat

Download on the App Store